Location: La Brionne
(46.1728°N, 1.7849°E)
Time: 08:13:16
(UTC+00:00)

Cosmos 1850 Rocket - Pass Details

Date: 16 June 2021
Orbit: 755 x 785 km, 74.0° (Epoch: 31 July)

Event Time Altitude Azimuth Distance (km) Brightness Sun altitude
Rises 21:03:47 0° 338° (NNW) 3,276 8.9 -10.5°
Reaches altitude 10° 21:06:11 10° 339° (NNW) 2,340 7.8 -10.8°
Maximum altitude 21:11:31 86° 68° (ENE) 783 4.0 -11.3°
Enters shadow 21:15:53 15° 158° (SSE) 1,965 5.5 -11.8°
